Time,TemperatureF,DewpointF,PressureIn,WindDirection,WindDirectionDegrees,WindSpeedMPH,WindSpeedGustMPH,Humidity,HourlyPrecipIn,Conditions,Clouds,dailyrainin,SoftwareType,DateUTC
2013-03-13 00:02:00,35.0,27.0,-100.00,SSW,194,10.0,18.0,73,-99.99,,,-99.99,,2013-03-13 06:02:00,
2013-03-13 00:11:00,35.0,28.0,-100.00,SSW,208,5.0,12.0,74,-99.99,,,-99.99,,2013-03-13 06:11:00,
2013-03-13 00:12:00,35.0,27.0,-100.00,SSW,194,10.0,18.0,73,-99.99,,,-99.99,,2013-03-13 06:12:00,
2013-03-13 00:23:00,35.0,28.0,-100.00,SW,216,8.0,18.0,74,-99.99,,,-99.99,,2013-03-13 06:23:00,
2013-03-13 00:32:00,35.0,28.0,-100.00,SSW,208,5.0,12.0,74,-99.99,,,-99.99,,2013-03-13 06:32:00,
2013-03-13 00:42:00,35.0,28.0,-100.00,SSW,208,5.0,12.0,74,-99.99,,,-99.99,,2013-03-13 06:42:00,
2013-03-13 00:52:00,35.0,28.0,-100.00,SSW,208,5.0,12.0,74,-99.99,,,-99.99,,2013-03-13 06:52:00,
2013-03-13 01:02:00,35.0,28.0,-100.00,SSW,208,5.0,12.0,74,-99.99,,,-99.99,,2013-03-13 07:02:00,
2013-03-13 01:33:00,34.0,27.0,-100.00,SW,227,11.0,13.0,74,-99.99,,,-99.99,,2013-03-13 07:33:00,
2013-03-13 01:43:00,34.0,27.0,-100.00,SW,227,11.0,13.0,74,-99.99,,,-99.99,,2013-03-13 07:43:00,
2013-03-13 01:51:00,34.0,28.0,-100.00,West,268,5.0,12.0,77,-99.99,,,-99.99,,2013-03-13 07:51:00,
2013-03-13 01:53:00,35.0,28.0,-100.00,SW,217,12.0,15.0,75,-99.99,,,-99.99,,2013-03-13 07:53:00,
2013-03-13 02:03:00,35.0,28.0,-100.00,SW,217,12.0,15.0,75,-99.99,,,-99.99,,2013-03-13 08:03:00,
2013-03-13 02:12:00,35.0,28.0,-100.00,SW,217,12.0,15.0,75,-99.99,,,-99.99,,2013-03-13 08:12:00,
2013-03-13 02:22:00,34.0,28.0,-100.00,West,268,5.0,12.0,77,-99.99,,,-99.99,,2013-03-13 08:22:00,
2013-03-13 02:32:00,34.0,28.0,-100.00,West,268,5.0,12.0,77,-99.99,,,-99.99,,2013-03-13 08:32:00,
2013-03-13 02:43:00,34.0,28.0,-100.00,West,268,5.0,12.0,77,-99.99,,,-99.99,,2013-03-13 08:43:00,
2013-03-13 04:11:00,38.0,31.0,-100.00,West,278,4.0,5.0,76,-99.99,,,-99.99,,2013-03-13 10:11:00,
2013-03-13 04:32:00,38.0,31.0,-100.00,West,278,4.0,5.0,76,-99.99,,,-99.99,,2013-03-13 10:32:00,
2013-03-13 04:42:00,38.0,31.0,-100.00,West,278,4.0,5.0,76,-99.99,,,-99.99,,2013-03-13 10:42:00,
2013-03-13 04:52:00,38.0,31.0,-100.00,West,278,4.0,5.0,76,-99.99,,,-99.99,,2013-03-13 10:52:00,
2013-03-13 05:02:00,38.0,31.0,-100.00,West,278,4.0,5.0,76,-99.99,,,-99.99,,2013-03-13 11:02:00,
2013-03-13 05:52:00,37.0,31.0,-100.00,West,274,3.0,7.0,78,-99.99,,,-99.99,,2013-03-13 11:52:00,
2013-03-13 06:02:00,37.0,31.0,-100.00,West,274,3.0,7.0,78,-99.99,,,-99.99,,2013-03-13 12:02:00,
2013-03-13 06:12:00,37.0,31.0,-100.00,West,274,3.0,7.0,78,-99.99,,,-99.99,,2013-03-13 12:12:00,
2013-03-13 06:22:00,37.0,31.0,-100.00,WSW,255,4.0,7.0,79,-99.99,,,-99.99,,2013-03-13 12:22:00,
2013-03-13 06:32:00,37.0,31.0,-100.00,WSW,255,4.0,7.0,79,-99.99,,,-99.99,,2013-03-13 12:32:00,
2013-03-13 06:42:00,37.0,31.0,-100.00,WSW,255,4.0,7.0,79,-99.99,,,-99.99,,2013-03-13 12:42:00,
2013-03-13 06:52:00,37.0,32.0,-100.00,WNW,298,5.0,13.0,81,-99.99,,,-99.99,,2013-03-13 12:52:00,
2013-03-13 07:02:00,37.0,32.0,-100.00,WNW,295,6.0,10.0,81,-99.99,,,-99.99,,2013-03-13 13:02:00,
2013-03-13 07:12:00,37.0,32.0,-100.00,WNW,295,6.0,10.0,81,-99.99,,,-99.99,,2013-03-13 13:12:00,
2013-03-13 07:22:00,37.0,32.0,-100.00,WNW,295,7.0,10.0,81,-99.99,,,-99.99,,2013-03-13 13:22:00,
2013-03-13 07:32:00,38.0,32.0,-100.00,West,274,6.0,9.0,80,-99.99,,,-99.99,,2013-03-13 13:32:00,
2013-03-13 07:42:00,38.0,32.0,-100.00,West,274,6.0,9.0,80,-99.99,,,-99.99,,2013-03-13 13:42:00,
2013-03-13 07:52:00,38.0,33.0,-100.00,WNW,289,8.0,11.0,81,-99.99,,,-99.99,,2013-03-13 13:52:00,
2013-03-13 08:02:00,37.0,32.0,-100.00,West,275,5.0,8.0,82,-99.99,,,-99.99,,2013-03-13 14:02:00,
2013-03-13 08:12:00,37.0,32.0,-100.00,West,275,5.0,8.0,82,-99.99,,,-99.99,,2013-03-13 14:12:00,
2013-03-13 08:21:00,38.0,33.0,-100.00,WNW,295,4.0,11.0,81,-99.99,,,-99.99,,2013-03-13 14:21:00,
2013-03-13 08:33:00,38.0,33.0,-100.00,WNW,296,2.0,8.0,81,-99.99,,,-99.99,,2013-03-13 14:33:00,
2013-03-13 08:42:00,38.0,33.0,-100.00,WNW,296,2.0,8.0,81,-99.99,,,-99.99,,2013-03-13 14:42:00,
2013-03-13 08:52:00,38.0,33.0,-100.00,WNW,296,2.0,8.0,81,-99.99,,,-99.99,,2013-03-13 14:52:00,
2013-03-13 09:03:00,41.0,35.0,-100.00,WNW,302,5.0,9.0,78,-99.99,,,-99.99,,2013-03-13 15:03:00,
2013-03-13 09:12:00,41.0,35.0,-100.00,WNW,302,5.0,9.0,78,-99.99,,,-99.99,,2013-03-13 15:12:00,
2013-03-13 09:22:00,44.0,37.0,-100.00,West,268,5.0,10.0,75,-99.99,,,-99.99,,2013-03-13 15:22:00,
2013-03-13 09:32:00,45.0,37.0,-100.00,WNW,289,5.0,11.0,73,-99.99,,,-99.99,,2013-03-13 15:32:00,
2013-03-13 09:42:00,45.0,37.0,-100.00,WNW,289,5.0,11.0,73,-99.99,,,-99.99,,2013-03-13 15:42:00,
2013-03-13 09:52:00,45.0,37.0,-100.00,NW,313,6.0,8.0,72,-99.99,,,-99.99,,2013-03-13 15:52:00,
2013-03-13 10:02:00,47.0,37.0,-100.00,NW,305,4.0,17.0,69,-99.99,,,-99.99,,2013-03-13 16:02:00,
2013-03-13 10:12:00,47.0,37.0,-100.00,NW,305,4.0,17.0,69,-99.99,,,-99.99,,2013-03-13 16:12:00,
2013-03-13 10:22:00,47.0,37.0,-100.00,WNW,296,4.0,12.0,69,-99.99,,,-99.99,,2013-03-13 16:22:00,
2013-03-13 10:32:00,47.0,37.0,-100.00,WNW,296,4.0,12.0,69,-99.99,,,-99.99,,2013-03-13 16:32:00,
2013-03-13 10:42:00,47.0,37.0,-100.00,WNW,296,4.0,12.0,69,-99.99,,,-99.99,,2013-03-13 16:42:00,
2013-03-13 10:52:00,48.0,38.0,-100.00,NW,306,4.0,12.0,69,-99.99,,,-99.99,,2013-03-13 16:52:00,
2013-03-13 11:02:00,50.0,39.0,-100.00,West,278,0.0,7.0,66,-99.99,,,-99.99,,2013-03-13 17:02:00,
2013-03-13 11:12:00,50.0,39.0,-100.00,West,278,0.0,7.0,66,-99.99,,,-99.99,,2013-03-13 17:12:00,
2013-03-13 11:22:00,50.0,39.0,-100.00,West,278,0.0,7.0,66,-99.99,,,-99.99,,2013-03-13 17:22:00,
2013-03-13 11:32:00,50.0,39.0,-100.00,West,278,0.0,7.0,66,-99.99,,,-99.99,,2013-03-13 17:32:00,
2013-03-13 12:22:00,55.0,39.0,-100.00,NNW,344,0.0,7.0,55,-99.99,,,-99.99,,2013-03-13 18:22:00,
2013-03-13 12:33:00,57.0,41.0,-100.00,NNW,345,14.0,22.0,54,-99.99,,,-99.99,,2013-03-13 18:33:00,
2013-03-13 12:42:00,58.0,41.0,-100.00,NW,320,18.0,20.0,54,-99.99,,,-99.99,,2013-03-13 18:42:00,
2013-03-13 12:43:00,57.0,41.0,-100.00,NNW,345,14.0,22.0,54,-99.99,,,-99.99,,2013-03-13 18:43:00,
2013-03-13 12:52:00,57.0,41.0,-100.00,WNW,296,11.0,21.0,54,-99.99,,,-99.99,,2013-03-13 18:52:00,
2013-03-13 13:02:00,58.0,41.0,-100.00,NW,320,18.0,20.0,54,-99.99,,,-99.99,,2013-03-13 19:02:00,
2013-03-13 13:12:00,58.0,41.0,-100.00,NW,320,18.0,20.0,54,-99.99,,,-99.99,,2013-03-13 19:12:00,
2013-03-13 13:22:00,58.0,41.0,-100.00,NW,320,18.0,20.0,54,-99.99,,,-99.99,,2013-03-13 19:22:00,
2013-03-13 13:32:00,58.0,41.0,-100.00,NW,320,18.0,20.0,54,-99.99,,,-99.99,,2013-03-13 19:32:00,
2013-03-13 14:02:00,59.0,41.0,-100.00,NW,319,22.0,24.0,51,-99.99,,,-99.99,,2013-03-13 20:02:00,
2013-03-13 14:12:00,59.0,41.0,-100.00,NW,319,22.0,24.0,51,-99.99,,,-99.99,,2013-03-13 20:12:00,
2013-03-13 14:22:00,60.0,41.0,-100.00,WNW,286,11.0,22.0,50,-99.99,,,-99.99,,2013-03-13 20:22:00,
2013-03-13 14:32:00,60.0,41.0,-100.00,WNW,286,11.0,22.0,50,-99.99,,,-99.99,,2013-03-13 20:32:00,
2013-03-13 14:42:00,60.0,41.0,-100.00,WNW,286,11.0,22.0,50,-99.99,,,-99.99,,2013-03-13 20:42:00,
2013-03-13 14:52:00,60.0,41.0,-100.00,WNW,286,11.0,22.0,50,-99.99,,,-99.99,,2013-03-13 20:52:00,
2013-03-13 15:52:00,62.0,40.0,-100.00,NNE,29,7.0,15.0,45,-99.99,,,-99.99,,2013-03-13 21:52:00,
2013-03-13 16:02:00,62.0,40.0,-100.00,NNE,29,7.0,15.0,45,-99.99,,,-99.99,,2013-03-13 22:02:00,
2013-03-13 16:12:00,62.0,40.0,-100.00,NNE,29,7.0,15.0,45,-99.99,,,-99.99,,2013-03-13 22:12:00,
2013-03-13 16:22:00,62.0,41.0,-100.00,North,5,3.0,11.0,46,-99.99,,,-99.99,,2013-03-13 22:22:00,
2013-03-13 16:32:00,63.0,41.0,-100.00,North,1,4.0,12.0,45,-99.99,,,-99.99,,2013-03-13 22:32:00,
2013-03-13 16:42:00,63.0,41.0,-100.00,North,1,4.0,12.0,45,-99.99,,,-99.99,,2013-03-13 22:42:00,
2013-03-13 16:52:00,63.0,41.0,-100.00,North,1,4.0,12.0,45,-99.99,,,-99.99,,2013-03-13 22:52:00,
2013-03-13 17:02:00,63.0,41.0,-100.00,North,1,4.0,12.0,45,-99.99,,,-99.99,,2013-03-13 23:02:00,
2013-03-13 17:52:00,59.0,40.0,-100.00,NNE,16,0.0,7.0,49,-99.99,,,-99.99,,2013-03-13 23:52:00,
2013-03-13 18:02:00,59.0,40.0,-100.00,NNE,16,0.0,7.0,49,-99.99,,,-99.99,,2013-03-14 00:02:00,
2013-03-13 18:12:00,59.0,40.0,-100.00,NNE,16,0.0,7.0,49,-99.99,,,-99.99,,2013-03-14 00:12:00,
2013-03-13 18:22:00,59.0,41.0,-100.00,North,355,0.0,5.0,51,-99.99,,,-99.99,,2013-03-14 00:22:00,
2013-03-13 18:32:00,59.0,41.0,-100.00,North,355,0.0,5.0,51,-99.99,,,-99.99,,2013-03-14 00:32:00,
2013-03-13 18:42:00,59.0,41.0,-100.00,North,355,0.0,5.0,51,-99.99,,,-99.99,,2013-03-14 00:42:00,
2013-03-13 18:52:00,59.0,41.0,-100.00,North,355,0.0,5.0,51,-99.99,,,-99.99,,2013-03-14 00:52:00,
2013-03-13 19:02:00,57.0,41.0,-100.00,ESE,108,0.0,7.0,55,-99.99,,,-99.99,,2013-03-14 01:02:00,
2013-03-13 19:12:00,57.0,41.0,-100.00,ESE,108,0.0,7.0,55,-99.99,,,-99.99,,2013-03-14 01:12:00,
2013-03-13 19:22:00,57.0,41.0,-100.00,NNW,344,0.0,7.0,56,-99.99,,,-99.99,,2013-03-14 01:22:00,
2013-03-13 19:32:00,55.0,41.0,-100.00,NNE,12,0.0,8.0,58,-99.99,,,-99.99,,2013-03-14 01:32:00,
2013-03-13 19:42:00,55.0,41.0,-100.00,NNE,12,0.0,8.0,58,-99.99,,,-99.99,,2013-03-14 01:42:00,
2013-03-13 19:52:00,55.0,41.0,-100.00,NNE,14,0.0,9.0,58,-99.99,,,-99.99,,2013-03-14 01:52:00,
2013-03-13 20:02:00,54.0,40.0,-100.00,NNE,29,5.0,9.0,60,-99.99,,,-99.99,,2013-03-14 02:02:00,
2013-03-13 20:12:00,54.0,40.0,-100.00,NNE,29,5.0,9.0,60,-99.99,,,-99.99,,2013-03-14 02:12:00,
2013-03-13 20:22:00,54.0,40.0,-100.00,East,82,0.0,9.0,60,-99.99,,,-99.99,,2013-03-14 02:22:00,
2013-03-13 20:32:00,53.0,40.0,-100.00,NW,305,4.0,7.0,61,-99.99,,,-99.99,,2013-03-14 02:32:00,
2013-03-13 20:42:00,53.0,40.0,-100.00,NW,305,4.0,7.0,61,-99.99,,,-99.99,,2013-03-14 02:42:00,
2013-03-13 20:51:00,53.0,40.0,-100.00,NW,305,4.0,7.0,61,-99.99,,,-99.99,,2013-03-14 02:51:00,
2013-03-13 21:02:00,53.0,40.0,-100.00,NNW,333,7.0,9.0,61,-99.99,,,-99.99,,2013-03-14 03:02:00,
2013-03-13 21:12:00,53.0,40.0,-100.00,NNW,333,7.0,9.0,61,-99.99,,,-99.99,,2013-03-14 03:12:00,
2013-03-13 21:23:00,53.0,40.0,-100.00,NNW,343,0.0,7.0,61,-99.99,,,-99.99,,2013-03-14 03:23:00,
2013-03-13 21:32:00,53.0,40.0,-100.00,North,358,0.0,5.0,61,-99.99,,,-99.99,,2013-03-14 03:32:00,
2013-03-13 21:42:00,53.0,40.0,-100.00,North,358,0.0,5.0,61,-99.99,,,-99.99,,2013-03-14 03:42:00,
2013-03-13 21:52:00,52.0,39.0,-100.00,NNE,15,0.0,6.0,62,-99.99,,,-99.99,,2013-03-14 03:52:00,
2013-03-13 22:12:00,52.0,39.0,-100.00,North,358,4.0,6.0,62,-99.99,,,-99.99,,2013-03-14 04:12:00,
2013-03-13 22:22:00,52.0,39.0,-100.00,NNW,329,0.0,7.0,62,-99.99,,,-99.99,,2013-03-14 04:22:00,
2013-03-13 22:32:00,52.0,39.0,-100.00,NNW,333,0.0,0.0,62,-99.99,,,-99.99,,2013-03-14 04:32:00,
2013-03-13 22:42:00,52.0,39.0,-100.00,NNW,333,0.0,0.0,62,-99.99,,,-99.99,,2013-03-14 04:42:00,
2013-03-13 22:52:00,51.0,38.0,-100.00,NNW,333,0.0,0.0,62,-99.99,,,-99.99,,2013-03-14 04:52:00,
2013-03-13 23:02:00,51.0,38.0,-100.00,NNW,333,0.0,0.0,62,-99.99,,,-99.99,,2013-03-14 05:02:00,
2013-03-13 23:12:00,51.0,38.0,-100.00,NNW,333,0.0,0.0,62,-99.99,,,-99.99,,2013-03-14 05:12:00,
2013-03-13 23:22:00,47.0,35.0,-100.00,NNW,333,0.0,0.0,63,-99.99,,,-99.99,,2013-03-14 05:22:00,
2013-03-13 23:33:00,48.0,36.0,-100.00,NNW,333,0.0,0.0,63,-99.99,,,-99.99,,2013-03-14 05:33:00,
2013-03-13 23:42:00,48.0,36.0,-100.00,NNW,333,0.0,0.0,63,-99.99,,,-99.99,,2013-03-14 05:42:00,
2013-03-13 23:53:00,51.0,38.0,-100.00,NNW,333,0.0,0.0,62,-99.99,,,-99.99,,2013-03-14 05:53:00,